sat.trackr.live / text

‹ back to catalog

STARLINK-30894

NORAD 58375 · 2023-178B

PAYLOAD ACTIVE UNKNOWN

§ Identity

Operator
Country
US
Launch date
2023-11-20
Launch site
AFWTR
Launch vehicle
Mass (kg)
RCS (m²)

Purposes: comms

External: N2YO · Heavens-Above · Gunter

§ Orbital elements

Epoch: 2026-05-24T22:25:55.886304Z

Period
93.85 min
Inclination
53.1619°
Eccentricity
0.0001175
Mean motion
15.34387170 rev/d
Perigee alt
461.9 km
Apogee alt
463.5 km
Semi-major
6,840.9 km
B*
1.4469e-4
RAAN
6.3039°
Arg perigee
97.8492°
Mean anomaly
262.2644°
Rev number
14,150

§ Raw data

STARLINK-308941 58375U 23178B   26144.93467461  .00004513  00000+0  14469-3 0  99952 58375  53.1619   6.3039 0001175  97.8492 262.2644 15.34387170141505

JSON: /api/v1/satellites/58375 · /tle

For live sub-satellite position, see the globe view (requires WebGL).

§ Visibility from observer

Set your observer location to see the next 7 days of passes ≥ 10°. The values pass through the URL so the page stays shareable.

No JS? Fill the form by hand. The geolocation button needs JavaScript.